Terminal Aerodrome Forecast
Issued by NWS

Home | Current Version | Previous Version | Text Only | Print | Product List | Glossary On
Versions: 1 2 3 4 5 6 7 8 9 10 11 12 13 14 15 16 17 18 19 20 21 22 23 24 25 26 27 28 29 30 31 32 33 34 35 36 37 38 39 40 41 42 43 44 45 46 47 48 49 50
000
FTUS44 KHGX 291120
TAFIAH
TAF
KIAH 291120Z 2912/3018 14005KT P6SM FEW013 SCT030
      TEMPO 2912/2913 BKN015
     FM291500 17008KT P6SM SCT020 BKN035
     FM300000 17008KT P6SM SCT045 SCT250
     FM300800 16004KT P6SM SCT020
      TEMPO 3009/3013 BKN017
     FM301500 18009KT P6SM SCT035=

USA.gov is the U.S. government's official web portal to all federal, state and local government web resources and services.